Regional Weather Roundup
Issued by NWS

Home | Current Version | Previous Version | Text Only | Print | Product List | Glossary On
Versions: 1 2 3 4 5 6 7 8 9 10 11 12 13 14 15 16 17 18 19 20 21 22 23 24 25 26 27 28 29 30 31 32 33 34 35 36 37 38 39 40 41 42 43 44 45 46 47 48 49 50
000
ASUS46 KSTO 040704
RWRCA

NORTHERN AND CENTRAL CA REGIONAL WEATHER ROUNDUP
NATIONAL WEATHER SERVICE SACRAMENTO CA
1200 AM PDT FRI SEP 04 2015

NOTE: FAIR INDICATES FEW OR NO CLOUDS BELOW 12,000 FEET WITH NO
SIGNIFICANT WEATHER AND/OR OBSTRUCTIONS TO VISIBILITY.

CAZ001-003-040800-
NORTHWEST AREA

CITY           SKY/WX    TMP DP  RH WIND       PRES   REMARKS
UKIAH          CLEAR     57  42  57 S3        29.85S
$$

CAZ006-505>513-040800-
BAY AREA

CITY           SKY/WX    TMP DP  RH WIND       PRES   REMARKS
SANTA ROSA     CLEAR     55  47  74 CALM      29.80S
SAN RAFAEL     N/A       62  MM  MM MISG
NAPA           CLEAR     60  54  80 SW8       29.81S
CONCORD        CLEAR     61  52  72 S16       29.82R
OAKLAND CITY   N/A       61  MM  MM MISG
OAKLAND        PTCLDY    61  53  75 SW14      29.84S
SAN FRAN CITY  N/A       59  MM  76 MISG
SAN FRAN ARPT  PTCLDY    60  51  72 W8        29.85S
LIVERMORE      PTCLDY    60  51  72 CALM      29.84S
HAYWARD        CLEAR     60  52  74 SW6       29.84F
REDWOOD CITY   N/A       MM  MM  MM MISG
MOFFETT ARPT   PTCLDY    61  47  59 CALM      29.85F
SAN JOSE ARPT  PTCLDY    60  50  69 S3        29.85S
$$
CAZ034-037-514>518-040800-
CENTRAL COAST

CITY           SKY/WX    TMP DP  RH WIND       PRES   REMARKS
WATSONVILLE    MOCLDY    59  53  80 NE3       29.87S
SALINAS        CLOUDY    60  51  72 SW5       29.89R
MONTEREY       CLOUDY    59  52  77 S5        29.90S
SAN LUIS OBISP PTCLDY    60  53  77 CALM      29.89R
SANTA MARIA    CLOUDY    59  56  89 W6        29.90S
$$
CAZ015-016-040800-
NORTHERN SACRAMENTO VALLEY

CITY           SKY/WX    TMP DP  RH WIND       PRES   REMARKS
REDDING        CLEAR     67  47  48 S5        29.78S
RED BLUFF      CLEAR     66  50  56 CALM      29.79S
OROVILLE       CLEAR     68  46  45 E6        29.80R
$$
CAZ016>018-040800-
SOUTHERN SACRAMENTO VALLEY

CITY           SKY/WX    TMP DP  RH WIND       PRES   REMARKS
AUBURN         CLEAR     61  43  51 SE5       29.84S
BEALE AFB      CLEAR     65  45  47 SE9       29.78R
LINCOLN        FAIR      64  46  52 SE6       29.79S
MARYSVILLE     CLEAR     64  48  56 SE10      29.79R
SAC INTL ARPT  CLEAR     62  52  69 S10       29.78S
MATHER AIRPORT NOT AVBL
DOWNTOWN SAC   N/A       64  MM  MM MISG
SAC EXEC ARPT  CLEAR     63  50  62 S6        29.79S
VACAVILLE      CLEAR     65  50  58 SW5       29.79S
TRAVIS AFB     CLEAR     61  51  70 SW16      29.77S
$$
CAZ019>021-040800-
SAN JOAQUIN VALLEY

CITY           SKY/WX    TMP DP  RH WIND       PRES   REMARKS
STOCKTON       CLEAR     61  48  62 NW6       29.81S
MODESTO        CLEAR     64  44  48 N6        29.80S
MERCED         CLEAR     61  50  67 W7        29.81R
LEMOORE        CLEAR     70  46  42 NW13      29.80R
FRESNO         PTCLDY    70  47  43 NW12      29.79S
HANFORD        CLEAR     70  50  49 NW12      29.79S
PORTERVILLE    CLEAR     70  52  52 W9        29.80S
BAKERSFIELD    CLEAR     73  46  38 N9        29.79R
$$
CAZ011-012-071-040800-
NORTHERN MOUNTAINS

CITY           SKY/WX    TMP DP  RH WIND       PRES   REMARKS
YREKA          CLEAR     53  31  42 N12       29.93S
MOUNT SHASTA   CLEAR     52  29  41 VRB3      29.92S
ALTURAS        PTCLDY    48  24  39 W5        29.93R
$$
CAZ011-012-071-040800-
SIERRA NEVADA MTNS

CITY           SKY/WX    TMP DP  RH WIND       PRES   REMARKS
BLUE CANYON    CLEAR     53  41  63 E3        29.97F
TAHOE VLY ARPT CLEAR     47  37  68 S3        29.99F
MAMMOTH LAKES  FAIR      46  34  61 CALM      30.02S
$$



USA.gov is the U.S. government's official web portal to all federal, state and local government web resources and services.